[[{"header":{"parameterUnit":"m.s-1","parameterCategory":1,"la1":30.2991,"la2":30.254,"lo1":-89.0895,"lo2":-89.0444,"dy":0.0017,"dx":0.0017,"nx":28,"ny":28,"refTime":"2025-04-13T09:00:00:Z","depth":0,"parameterNumber":2,"parameterNumberName":"U-component_of_WINDS"},"data":[0,0,0,0,0,0,0,0,0,0,0,0,0,0,0,0,0,0,0,0,0,0,0,0,0,0,0,0,0,0,0,0,0,0,0,0,0,0,0,0,0,0,0,0,0,0,0,0,0,0,0,0,0,0,0,0,0,0,0.1225,0.1224,0,0.1152,0.1151,0.115,0.1124,0.1124,0.1125,0.1125,0.105,0.1048,0.1046,0,0,0,0,0,0,0,0,0,0,0,0,0,0.1341,0.1339,0.1225,0.1224,0.1223,0.1152,0.1151,0.115,0.1124,0.1124,0.1125,0.1125,0.1051,0.1048,0.1046,0,0,0,0,0,0,0,0,0,0,0,0,0,0.1282,0.1338,0.1225,0.1202,0.1199,0.1152,0.1151,0.115,0.1124,0.1124,0.1125,0.1125,0.1052,0.1048,0.1045,0.1017,0,0,0.1035,0.1033,0,0,0,0,0,0,0,0,0.1285,0.1277,0.1206,0.1203,0.12,0.1148,0.1165,0.1105,0.1124,0.1152,0.1125,0.1125,0.1082,0.1076,0.1062,0.1013,0.101,0.1035,0.1033,0.1031,0.103,0,0,0,0,0,0,0,0.1289,0.128,0.1196,0.1205,0.1201,0.1194,0.1186,0.1153,0.1116,0.115,0.1148,0.114,0.1081,0.1065,0.106,0.1009,0.1035,0.1032,0.103,0.1028,0.0933,0.0932,0,0,0,0,0,0,0.1297,0.1284,0.1198,0.1194,0.1244,0.1192,0.1183,0.1164,0.1116,0.1109,0.1139,0.1139,0.1071,0.1064,0.1057,0.102,0.1031,0.1028,0.1026,0.0934,0.0933,0.0932,0,0,0,0,0,0,0.13,0.129,0.1201,0.1238,0.1227,0.119,0.1168,0.1162,0.1147,0.1108,0.1102,0.113,0.1071,0.1062,0.1027,0.1018,0.1027,0.1024,0.0934,0.0933,0.0933,0.0947,0,0,0,0,0,0,0.1303,0.1291,0.128,0.1238,0.1225,0.1172,0.1168,0.1161,0.1141,0.114,0.1098,0.1092,0.107,0.1032,0.1024,0.1013,0.1021,0.0935,0.0934,0.0933,0.0947,0.0947,0.0947,0,0,0,0,0,0.1308,0.1287,0.128,0.1269,0.121,0.1172,0.1164,0.114,0.114,0.1129,0.1104,0.1093,0.102,0.1029,0.1019,0.1007,0.0935,0.0934,0.0933,0.0947,0.0947,0.0947,0,0,0,0,0,0,0.1329,0.1281,0.1272,0.1238,0.1209,0.1168,0.1152,0.114,0.1111,0.1111,0.1082,0.1073,0.104,0.102,0.1031,0.0977,0.0977,0.0974,0.0991,0.0991,0.099,0.0996,0.1018,0,0,0,0,0,0.1329,0.1302,0.1262,0.1236,0.1222,0.119,0.1172,0.1156,0.1125,0.1113,0.1085,0.1056,0.1026,0.1007,0.0978,0.0944,0.0935,0.0932,0.0931,0.0931,0.0929,0.0909,0.0907,0.0928,0.0928,0.0928,0,0,0.133,0.1301,0.1286,0.1239,0.1215,0.1188,0.118,0.1151,0.113,0.1108,0.1074,0.1053,0.1018,0.0983,0.0967,0.0966,0.0921,0.093,0.093,0.0927,0.0908,0.0906,0.0904,0.0928,0.0928,0.0928,0,0,0.1318,0.1293,0.1268,0.1244,0.1208,0.1186,0.118,0.1141,0.1126,0.109,0.1073,0.1048,0.0998,0.0974,0.0955,0.0933,0.0921,0.0924,0.0922,0.0904,0.0902,0.09,0.0892,0.089,0.0922,0.0922,0.0922,0,0.1324,0.1282,0.1257,0.1229,0.1209,0.1188,0.1162,0.114,0.1096,0.1082,0.1081,0.1018,0.0993,0.0952,0.0947,0.0932,0.0924,0.0929,0.0904,0.0902,0.09,0.0893,0.089,0.0923,0.0922,0.0922,0.0922,0,0.1291,0.1262,0.1246,0.1204,0.1182,0.1155,0.1126,0.1106,0.1092,0.1071,0.1035,0.1004,0.0968,0.0958,0.0943,0.0915,0.0915,0.091,0.0909,0.0899,0.0891,0.0888,0.0923,0.0923,0.0923,0.0923,0,0,0.129,0.1234,0.1228,0.1209,0.1167,0.1144,0.1116,0.1081,0.1065,0.1035,0.1011,0.0969,0.0963,0.0942,0.0925,0.0908,0.0893,0.0905,0.0904,0.0904,0.0859,0.0863,0.086,0.0885,0.0884,0.0884,0.0862,0,0.1272,0.1221,0.1198,0.1158,0.113,0.111,0.1086,0.1057,0.1037,0.1011,0.0988,0.0958,0.0953,0.094,0.0923,0.0898,0.0884,0.09,0.0862,0.0861,0.0872,0.0856,0.0861,0.0842,0.0859,0.0858,0.0858,0,0.1244,0.1214,0.1172,0.1132,0.112,0.1099,0.1064,0.104,0.1007,0.0993,0.0969,0.0953,0.0923,0.0924,0.0882,0.0894,0.0877,0.0862,0.0861,0.0857,0.0859,0.0851,0.0835,0.0832,0.0853,0.0853,0.0854,0,0.1248,0.1197,0.1164,0.1148,0.1102,0.1087,0.1067,0.1035,0.1015,0.0985,0.0972,0.0939,0.0921,0.0895,0.087,0.0874,0.0831,0.083,0.0818,0.0819,0.081,0.0811,0.0791,0.08,0.08,0.08,0.08,0,0.123,0.1204,0.1165,0.1145,0.1116,0.1089,0.1061,0.1039,0.1011,0.0986,0.0967,0.0944,0.0912,0.0886,0.0866,0.0834,0.0826,0.0814,0.0809,0.0816,0.0817,0.0804,0.0805,0.0799,0.0799,0.0799,0.0799,0,0.1229,0.1201,0.1165,0.1124,0.1113,0.1093,0.1058,0.1038,0.1016,0.0985,0.0977,0.0943,0.091,0.0883,0.0841,0.0827,0.0794,0.0789,0.0805,0.0803,0.0792,0.0794,0.0763,0.0757,0.077,0.077,0.077,0,0.1219,0.1199,0.1156,0.1138,0.1118,0.109,0.1069,0.1042,0.1021,0.0982,0.0967,0.0933,0.0905,0.0854,0.0826,0.0793,0.0786,0.0778,0.0781,0.0788,0.0786,0.0787,0.0785,0.0778,0.0778,0.0778,0.0778,0,0.1205,0.1192,0.1164,0.113,0.1106,0.1078,0.105,0.1037,0.1004,0.0982,0.0948,0.0926,0.0883,0.085,0.0814,0.0793,0.078,0.0777,0.0772,0.0779,0.0789,0.0783,0.0805,0.0778,0.0778,0.0778,0.0778,0.0778,0.1199,0.118,0.1147,0.1115,0.1091,0.1065,0.1044,0.1019,0.0991,0.0953,0.0939,0.0905,0.0872,0.0823,0.0802,0.0775,0.0774,0.0767,0.0765,0.0764,0.0765,0.0794,0.0769,0.0769,0.0769,0.0769,0.0769,0,0.1184,0.1161,0.1132,0.1093,0.1069,0.1058,0.1026,0.1006,0.0976,0.0947,0.0919,0.0881,0.0848,0.0818,0.0784,0.0768,0.0761,0.076,0.0761,0.0756,0.0769,0.0776,0.0766,0.0766,0.0766,0.0766,0.0766,0.0766,0.1173,0.114,0.1123,0.1078,0.1056,0.1022,0.1005,0.0981,0.0957,0.0915,0.0888,0.0868,0.0838,0.0801,0.0771,0.0763,0.0751,0.0752,0.0742,0.0755,0.0755,0.0756,0.0762,0.075,0.075,0.0731,0.0731,0.0731]},{"header":{"parameterUnit":"m.s-1","parameterCategory":1,"la1":30.2991,"la2":30.254,"lo1":-89.0895,"lo2":-89.0444,"dy":0.0017,"dx":0.0017,"nx":28,"ny":28,"refTime":"2025-04-13T09:00:00:Z","depth":0,"parameterNumber":3,"parameterNumberName":"V-component_of_WINDS"},"data":[0,0,0,0,0,0,0,0,0,0,0,0,0,0,0,0,0,0,0,0,0,0,0,0,0,0,0,0,0,0,0,0,0,0,0,0,0,0,0,0,0,0,0,0,0,0,0,0,0,0,0,0,0,0,0,0,0,0,-2.7892,-2.7894,0,-2.8028,-2.8029,-2.8031,-2.8015,-2.8013,-2.8011,-2.8009,-2.8144,-2.8149,-2.8154,0,0,0,0,0,0,0,0,0,0,0,0,0,-2.7616,-2.7621,-2.7892,-2.7894,-2.7895,-2.8027,-2.8029,-2.8031,-2.8016,-2.8013,-2.8011,-2.8008,-2.8142,-2.8148,-2.8155,0,0,0,0,0,0,0,0,0,0,0,0,0,-2.7742,-2.7623,-2.7892,-2.7904,-2.7906,-2.8027,-2.8029,-2.8032,-2.8016,-2.8013,-2.801,-2.8007,-2.8139,-2.8148,-2.8156,-2.8272,0,0,-2.8181,-2.8185,0,0,0,0,0,0,0,0,-2.7735,-2.7752,-2.79,-2.7903,-2.7906,-2.8001,-2.7981,-2.8112,-2.8017,-2.7974,-2.8009,-2.8005,-2.8099,-2.811,-2.8142,-2.8278,-2.8284,-2.8182,-2.8187,-2.8191,-2.8193,0,0,0,0,0,0,0,-2.7726,-2.7746,-2.7945,-2.7902,-2.7906,-2.7901,-2.7916,-2.8006,-2.8053,-2.7978,-2.7977,-2.7994,-2.8099,-2.8134,-2.8145,-2.8286,-2.8182,-2.8189,-2.8195,-2.8198,-2.8525,-2.8529,0,0,0,0,0,0,-2.7715,-2.7739,-2.7941,-2.795,-2.7811,-2.7909,-2.7925,-2.7974,-2.8052,-2.8061,-2.7996,-2.7992,-2.8122,-2.8136,-2.815,-2.8292,-2.8191,-2.8199,-2.8203,-2.8522,-2.8526,-2.853,0,0,0,0,0,0,-2.7709,-2.7733,-2.7936,-2.7844,-2.787,-2.7917,-2.7972,-2.7978,-2.8013,-2.8066,-2.8073,-2.8024,-2.812,-2.8138,-2.8243,-2.8297,-2.8202,-2.821,-2.8517,-2.8523,-2.8528,-2.8577,0,0,0,0,0,0,-2.7702,-2.7731,-2.7777,-2.7846,-2.7875,-2.8027,-2.7976,-2.7983,-2.8028,-2.8025,-2.8094,-2.8102,-2.8119,-2.823,-2.8251,-2.8307,-2.8217,-2.8513,-2.852,-2.8526,-2.8571,-2.8584,-2.8595,0,0,0,0,0,-2.7692,-2.7784,-2.7779,-2.7804,-2.7933,-2.803,-2.8047,-2.8066,-2.8033,-2.8079,-2.8112,-2.81,-2.8287,-2.8241,-2.8264,-2.8323,-2.8509,-2.8518,-2.8526,-2.8566,-2.8581,-2.8594,0,0,0,0,0,0,-2.7718,-2.7793,-2.7789,-2.7906,-2.7962,-2.8027,-2.8085,-2.8081,-2.8147,-2.814,-2.8159,-2.8175,-2.828,-2.8312,-2.8259,-2.844,-2.8394,-2.8407,-2.8416,-2.8431,-2.8443,-2.8433,-2.8224,0,0,0,0,0,-2.7738,-2.7812,-2.7873,-2.797,-2.7999,-2.8038,-2.8081,-2.8091,-2.8149,-2.8172,-2.8213,-2.8269,-2.8341,-2.8388,-2.8456,-2.8575,-2.859,-2.8627,-2.8639,-2.8649,-2.866,-2.8726,-2.8743,-2.8557,-2.8557,-2.8557,0,0,-2.7779,-2.7829,-2.7874,-2.7977,-2.8022,-2.8098,-2.8058,-2.8139,-2.8195,-2.8184,-2.8286,-2.8318,-2.8381,-2.8494,-2.8545,-2.8523,-2.8715,-2.8659,-2.8666,-2.8673,-2.8736,-2.8754,-2.8769,-2.8563,-2.8562,-2.8561,0,0,-2.7893,-2.7938,-2.8025,-2.8071,-2.814,-2.8165,-2.8186,-2.8253,-2.8275,-2.8378,-2.8371,-2.8437,-2.856,-2.8606,-2.8646,-2.8779,-2.877,-2.88,-2.8862,-2.8926,-2.8941,-2.8954,-2.9002,-2.9019,-2.8811,-2.8812,-2.8812,0,-2.7934,-2.805,-2.807,-2.8153,-2.8199,-2.8194,-2.8282,-2.8325,-2.8412,-2.8444,-2.8418,-2.8574,-2.8616,-2.874,-2.8772,-2.8804,-2.8828,-2.8793,-2.8938,-2.8951,-2.8964,-2.901,-2.9028,-2.8815,-2.8814,-2.8814,-2.8814,0,-2.8098,-2.8178,-2.824,-2.8327,-2.8379,-2.8464,-2.8497,-2.8547,-2.8553,-2.858,-2.8685,-2.8736,-2.8816,-2.8846,-2.8851,-2.8971,-2.8955,-2.8933,-2.8887,-2.8984,-2.9028,-2.9046,-2.882,-2.8818,-2.8817,-2.8817,0,0,-2.8232,-2.833,-2.8353,-2.8393,-2.8469,-2.8531,-2.8615,-2.8695,-2.8739,-2.8799,-2.887,-2.8975,-2.8957,-2.9001,-2.9012,-2.9068,-2.9171,-2.904,-2.9042,-2.9063,-2.9307,-2.9323,-2.9343,-2.9166,-2.9169,-2.9172,-2.9302,0,-2.8354,-2.8506,-2.8527,-2.8661,-2.8736,-2.8733,-2.8807,-2.8861,-2.889,-2.8956,-2.8986,-2.9061,-2.903,-2.9057,-2.9113,-2.9147,-2.9221,-2.9138,-2.9232,-2.9235,-2.9217,-2.9366,-2.9383,-2.9503,-2.9319,-2.9322,-2.9324,0,-2.8516,-2.8584,-2.8726,-2.8794,-2.8826,-2.8892,-2.8968,-2.9031,-2.9093,-2.9109,-2.9161,-2.9165,-2.9252,-2.9202,-2.9322,-2.9265,-2.9305,-2.9327,-2.9332,-2.9342,-2.9286,-2.938,-2.9542,-2.956,-2.9351,-2.9349,-2.9347,0,-2.8601,-2.8727,-2.8829,-2.8863,-2.8944,-2.8991,-2.9027,-2.9085,-2.9132,-2.9198,-2.9228,-2.9302,-2.9343,-2.9399,-2.9423,-2.9384,-2.9542,-2.9494,-2.9558,-2.9557,-2.9591,-2.9589,-2.9762,-2.9616,-2.9616,-2.9615,-2.9615,0,-2.8735,-2.8822,-2.8868,-2.8931,-2.9028,-2.9052,-2.9147,-2.9181,-2.9234,-2.9302,-2.9303,-2.9367,-2.9394,-2.9462,-2.948,-2.9578,-2.9595,-2.9611,-2.9615,-2.9611,-2.961,-2.9638,-2.963,-2.962,-2.9619,-2.9618,-2.9617,0,-2.8846,-2.888,-2.8991,-2.906,-2.9079,-2.9148,-2.9206,-2.9267,-2.9295,-2.9382,-2.9403,-2.9447,-2.9527,-2.9556,-2.9653,-2.9665,-2.9778,-2.9775,-2.9758,-2.9759,-2.9822,-2.9816,-3.002,-3.0048,-2.9883,-2.9884,-2.9886,0,-2.893,-2.8997,-2.9074,-2.9121,-2.9159,-2.9235,-2.9283,-2.9309,-2.9359,-2.9435,-2.9486,-2.9567,-2.9633,-2.9761,-2.98,-2.9874,-2.9873,-2.9939,-2.9884,-2.9879,-2.9875,-2.9871,-2.9878,-2.995,-2.9951,-2.9953,-2.9954,0,-2.9075,-2.9089,-2.9161,-2.9239,-2.9297,-2.9359,-2.9419,-2.9457,-2.9491,-2.9548,-2.9631,-2.9682,-2.9783,-2.9862,-2.9939,-2.9974,-2.997,-2.9971,-2.999,-2.9987,-2.9975,-2.9984,-2.9787,-2.9966,-2.9965,-2.9964,-2.9964,-2.9963,-2.9176,-2.9236,-2.9301,-2.938,-2.9429,-2.9485,-2.9546,-2.9582,-2.9653,-2.9738,-2.9748,-2.9838,-2.9898,-3.0,-3.0039,-3.0109,-3.0091,-3.0118,-3.0125,-3.0131,-3.0136,-2.9964,-3.0123,-3.0122,-3.0122,-3.0122,-3.0121,0,-2.9322,-2.9364,-2.9437,-2.9522,-2.9585,-2.9578,-2.9644,-2.9697,-2.9776,-2.9833,-2.9899,-2.9995,-3.0072,-3.0119,-3.0196,-3.0243,-3.0243,-3.0263,-3.026,-3.0268,-3.0148,-3.0124,-3.0261,-3.0261,-3.0261,-3.0261,-3.0261,-3.0261,-2.9406,-2.9509,-2.953,-2.9657,-2.9697,-2.9787,-2.9826,-2.9877,-2.9924,-3.0032,-3.0097,-3.0127,-3.018,-3.0262,-3.0333,-3.0344,-3.0373,-3.0394,-3.0404,-3.0291,-3.0276,-3.0263,-3.0241,-3.04,-3.04,-3.0518,-3.0519,-3.052]}]]